• In Austria
  • List of Countries
  • For 7 days
  • Water Temperature
  • Satellite Maps
  • Weather Map
  • News
  • Weather Widgets
  • user-avatar
    Login

    Hourly Weather Gweru

    Today, 19 June, Tuesday

    Time Temperature Precipitation Wind Pressure Humidity
    00:00 +13°C° 0 mm 1 mps 645 mmHg 43%
    01:00 +12°C° 0 mm 1 mps 645 mmHg 45%
    02:00 +12°C° 0 mm 1 mps 645 mmHg 48%
    03:00 +12°C° 0 mm 1 mps 645 mmHg 50%
    04:00 +11°C° 0 mm 1 mps 645 mmHg 52%
    05:00 +11°C° 0 mm 1 mps 645 mmHg 54%
    06:00 +12°C° 0 mm 1 mps 645 mmHg 51%
    07:00 +13°C° 0 mm 1 mps 646 mmHg 49%
    08:00 +14°C° 0 mm 1 mps 646 mmHg 47%
    09:00 +18°C° 0 mm 1 mps 647 mmHg 39%
    10:00 +21°C° 0 mm 1 mps 648 mmHg 32%
    11:00 +25°C° 0 mm 2 mps 649 mmHg 24%
    12:00 +26°C° 0 mm 1 mps 649 mmHg 22%
    13:00 +27°C° 0 mm 1 mps 648 mmHg 19%
    14:00 +27°C° 0 mm 0 mps 648 mmHg 16%
    15:00 +27°C° 0 mm 1 mps 648 mmHg 18%
    16:00 +25°C° 0 mm 1 mps 647 mmHg 20%
    17:00 +23°C° 0 mm 1 mps 646 mmHg 22%
    18:00 +21°C° 0 mm 1 mps 646 mmHg 25%
    19:00 +19°C° 0 mm 1 mps 646 mmHg 29%
    20:00 +16°C° 0 mm 1 mps 645 mmHg 32%
    21:00 +15°C° 0 mm 1 mps 645 mmHg 34%
    22:00 +15°C° 0 mm 1 mps 646 mmHg 35%
    23:00 +14°C° 0 mm 1 mps 646 mmHg 36%

    Tomorrow, 20 June, Wednesday

    Time Temperature Precipitation Wind Pressure Humidity
    00:00 +14°C° 0 mm 1 mps 646 mmHg 38%
    01:00 +13°C° 0 mm 1 mps 646 mmHg 39%
    02:00 +13°C° 0 mm 1 mps 646 mmHg 40%
    03:00 +13°C° 0 mm 1 mps 646 mmHg 42%
    04:00 +12°C° 0 mm 1 mps 646 mmHg 44%
    05:00 +12°C° 0 mm 1 mps 645 mmHg 46%
    06:00 +13°C° 0 mm 1 mps 646 mmHg 44%
    07:00 +15°C° 0 mm 1 mps 647 mmHg 42%
    08:00 +16°C° 0 mm 1 mps 648 mmHg 40%
    09:00 +20°C° 0 mm 1 mps 649 mmHg 35%
    10:00 +21°C° 0 mm 2 mps 649 mmHg 29%
    11:00 +25°C° 0 mm 2 mps 650 mmHg 23%
    12:00 +26°C° 0 mm 2 mps 650 mmHg 21%
    13:00 +27°C° 0 mm 2 mps 649 mmHg 19%
    14:00 +27°C° 0 mm 3 mps 649 mmHg 17%
    15:00 +26°C° 0 mm 3 mps 648 mmHg 19%
    16:00 +25°C° 0 mm 3 mps 648 mmHg 21%
    17:00 +24°C° 0 mm 3 mps 648 mmHg 24%
    18:00 +21°C° 0 mm 3 mps 648 mmHg 28%
    19:00 +19°C° 0 mm 4 mps 648 mmHg 33%
    20:00 +17°C° 0 mm 4 mps 648 mmHg 37%
    21:00 +15°C° 0 mm 4 mps 648 mmHg 40%
    22:00 +16°C° 0 mm 3 mps 648 mmHg 42%
    23:00 +14°C° 0 mm 3 mps 648 mmHg 44%

    Day after tomorrow, 21 June, Thursday

    Time Temperature Precipitation Wind Pressure Humidity
    00:00 +14°C° 0 mm 3 mps 648 mmHg 49%
    01:00 +13°C° 0 mm 3 mps 648 mmHg 54%
    02:00 +12°C° 0 mm 3 mps 648 mmHg 60%
    03:00 +12°C° 0 mm 3 mps 648 mmHg 65%
    04:00 +12°C° 0 mm 2 mps 648 mmHg 70%
    05:00 +12°C° 0 mm 2 mps 647 mmHg 75%
    06:00 +13°C° 0 mm 2 mps 648 mmHg 74%
    07:00 +12°C° 0 mm 3 mps 649 mmHg 74%
    08:00 +13°C° 0 mm 3 mps 649 mmHg 73%
    09:00 +17°C° 0 mm 3 mps 650 mmHg 64%
    10:00 +19°C° 0 mm 3 mps 651 mmHg 54%
    11:00 +21°C° 0 mm 3 mps 651 mmHg 45%
    12:00 +22°C° 0 mm 3 mps 651 mmHg 41%
    13:00 +24°C° 0 mm 3 mps 650 mmHg 37%
    14:00 +25°C° 0 mm 3 mps 650 mmHg 34%
    15:00 +24°C° 0 mm 3 mps 649 mmHg 37%
    16:00 +22°C° 0 mm 3 mps 649 mmHg 40%
    17:00 +20°C° 0 mm 3 mps 648 mmHg 44%
    18:00 +19°C° 0 mm 3 mps 648 mmHg 52%
    19:00 +18°C° 0 mm 3 mps 649 mmHg 61%
    20:00 +16°C° 0 mm 3 mps 649 mmHg 69%
    21:00 +14°C° 0 mm 3 mps 649 mmHg 73%
    22:00 +14°C° 0 mm 3 mps 649 mmHg 77%
    23:00 +14°C° 0 mm 2 mps 649 mmHg 81%

    22 June, Friday

    Time Temperature Precipitation Wind Pressure Humidity
    00:00 +14°C° 0 mm 2 mps 648 mmHg 83%
    01:00 +14°C° 0 mm 2 mps 648 mmHg 84%
    02:00 +13°C° 0 mm 2 mps 648 mmHg 85%
    03:00 +13°C° 0 mm 1 mps 648 mmHg 87%
    04:00 +13°C° 0 mm 1 mps 648 mmHg 88%
    05:00 +12°C° 0 mm 1 mps 648 mmHg 90%
    06:00 +13°C° 0 mm 1 mps 648 mmHg 86%
    07:00 +14°C° 0 mm 1 mps 649 mmHg 83%
    08:00 +14°C° 0 mm 1 mps 649 mmHg 80%
    09:00 +18°C° 0 mm 1 mps 650 mmHg 68%
    10:00 +20°C° 0 mm 1 mps 650 mmHg 57%
    11:00 +23°C° 0 mm 1 mps 651 mmHg 45%
    12:00 +23°C° 0 mm 1 mps 650 mmHg 42%
    13:00 +23°C° 0 mm 1 mps 649 mmHg 38%
    14:00 +24°C° 0 mm 1 mps 649 mmHg 35%
    15:00 +23°C° 0 mm 2 mps 648 mmHg 38%
    16:00 +21°C° 0 mm 2 mps 648 mmHg 40%
    17:00 +20°C° 0 mm 2 mps 648 mmHg 43%
    18:00 +19°C° 0 mm 2 mps 648 mmHg 48%
    19:00 +18°C° 0 mm 2 mps 648 mmHg 52%
    20:00 +17°C° 0 mm 2 mps 648 mmHg 57%
    21:00 +16°C° 0.1 mm 2 mps 648 mmHg 63%
    22:00 +15°C° 0.1 mm 2 mps 648 mmHg 69%
    23:00 +15°C° 0.1 mm 2 mps 648 mmHg 76%

    23 June, Saturday

    Time Temperature Precipitation Wind Pressure Humidity
    00:00 +14°C° 0 mm 2 mps 647 mmHg 80%
    01:00 +13°C° 0 mm 2 mps 647 mmHg 85%
    02:00 +13°C° 0 mm 2 mps 646 mmHg 89%
    03:00 +12°C° 0 mm 2 mps 646 mmHg 90%
    04:00 +12°C° 0 mm 1 mps 646 mmHg 91%
    05:00 +12°C° 0 mm 1 mps 646 mmHg 92%
    06:00 +13°C° 0 mm 1 mps 647 mmHg 88%
    07:00 +14°C° 0 mm 2 mps 648 mmHg 83%
    08:00 +15°C° 0 mm 2 mps 648 mmHg 78%
    09:00 +16°C° 0.2 mm 2 mps 649 mmHg 71%
    10:00 +18°C° 0.2 mm 3 mps 649 mmHg 63%
    11:00 +19°C° 0.2 mm 3 mps 649 mmHg 55%
    12:00 +19°C° 0.3 mm 3 mps 648 mmHg 55%
    13:00 +19°C° 0.3 mm 3 mps 648 mmHg 55%
    14:00 +19°C° 0.3 mm 3 mps 647 mmHg 56%
    15:00 +18°C° 0.1 mm 2 mps 647 mmHg 59%
    16:00 +17°C° 0.1 mm 2 mps 647 mmHg 62%
    17:00 +17°C° 0.1 mm 2 mps 647 mmHg 65%
    18:00 +16°C° 0 mm 2 mps 647 mmHg 68%
    19:00 +15°C° 0 mm 2 mps 647 mmHg 71%
    20:00 +15°C° 0 mm 2 mps 647 mmHg 74%
    21:00 +14°C° 0 mm 2 mps 647 mmHg 78%
    22:00 +13°C° 0 mm 1 mps 647 mmHg 81%
    23:00 +13°C° 0 mm 1 mps 647 mmHg 85%

    24 June, Sunday

    Time Temperature Precipitation Wind Pressure Humidity
    00:00 +12°C° 0 mm 1 mps 646 mmHg 87%
    01:00 +12°C° 0 mm 1 mps 646 mmHg 88%
    02:00 +12°C° 0 mm 1 mps 646 mmHg 90%
    03:00 +11°C° 0 mm 1 mps 646 mmHg 90%
    04:00 +11°C° 0 mm 1 mps 646 mmHg 90%
    05:00 +11°C° 0 mm 1 mps 646 mmHg 90%
    06:00 +12°C° 0 mm 1 mps 646 mmHg 84%
    07:00 +13°C° 0 mm 1 mps 647 mmHg 78%
    08:00 +14°C° 0 mm 2 mps 647 mmHg 73%
    09:00 +16°C° 0 mm 2 mps 648 mmHg 61%
    10:00 +19°C° 0 mm 2 mps 648 mmHg 49%
    11:00 +21°C° 0 mm 3 mps 649 mmHg 38%
    12:00 +22°C° 0 mm 3 mps 649 mmHg 35%
    13:00 +22°C° 0 mm 3 mps 648 mmHg 31%
    14:00 +24°C° 0 mm 3 mps 648 mmHg 28%
    15:00 +22°C° 0 mm 3 mps 647 mmHg 30%
    16:00 +21°C° 0 mm 3 mps 647 mmHg 32%
    17:00 +20°C° 0 mm 3 mps 647 mmHg 34%
    18:00 +19°C° 0 mm 3 mps 647 mmHg 39%
    19:00 +17°C° 0 mm 3 mps 647 mmHg 43%
    20:00 +14°C° 0 mm 3 mps 647 mmHg 48%
    21:00 +14°C° 0 mm 3 mps 647 mmHg 51%
    22:00 +14°C° 0 mm 2 mps 647 mmHg 55%
    23:00 +13°C° 0 mm 2 mps 647 mmHg 58%
    Show more